Orangeburg, SC

10:24 AM EDT on June 26, 2017 (GMT -0400)
Orangeburg Municipal

Weather History for KOGB - July, 2012

Change the Weather History Date:

Thursday, July 5, 2012

  Actual Average Record
Temperature  
Mean Temperature 86 °F 81 °F  
Max Temperature 97 °F 92 °F 99 °F (1982)
Min Temperature 75 °F 70 °F 61 °F (1976)
Degree Days  
Heating Degree Days 0 0  
Month to date heating degree days 0 0  
Since 1 June heating degree days 0 1  
Since 1 July heating degree days 0 0  
Cooling Degree Days 21 16  
Month to date cooling degree days 95 80  
Year to date cooling degree days 976 781  
Since 1 June cooling degree days 428 478  
Growing Degree Days 34 (Base 50)    
Moisture  
Dew Point 72 °F    
Average Humidity 69    
Maximum Humidity 87    
Minimum Humidity 46    
Precipitation  
Precipitation 0.00 in 0.18 in 3.73 in (1980)
Month to date precipitation 1.03 0.94  
Year to date precipitation 21.11 23.68  
Sea Level Pressure  
Sea Level Pressure 29.95 in    
Wind  
Wind Speed 5 mph (SW)    
Max Wind Speed 13 mph    
Max Gust Speed 18 mph    
Visibility 9 miles    
Events      
T = Trace of Precipitation, MM = Missing Value Source: NWS Daily Summary

Daily Weather History Graph

Daily Weather History Graph

Search for Another Location

Airport or City:

Trip Planner

Search our weather history database for the weather conditions in past years. The results will help you decide how hot, cold, wet, or windy it might be!

Date:

Astronomy

Jul. 05, 2012 Rise Set
Actual Time 6:19 AM EDT 8:36 PM EDT
Civil Twilight 5:50 AM EDT 9:05 PM EDT
Nautical Twilight 5:15 AM EDT 9:40 PM EDT
Astronomical Twilight 4:37 AM EDT 10:18 PM EDT
Moon 10:02 PM EDT (7/5) 8:22 AM EDT (7/5)
Length of Visible Light 15h 14m
Length of Day
14h 17m
Waning Gibbous, 95% of the Moon is Illuminated
Jul 5
Waning Gibbous
Jul 10
Last Quarter
Jul 19
New
Jul 26
First Quarter
Aug 1
Full

Hourly Weather History & Observations

Time (EDT) Temp. Heat Index Dew Point Humidity Pressure Visibility Wind Dir Wind Speed Gust Speed Precip Events Conditions
12:53 AM 78.1 °F - 70.0 °F 76% 29.99 in 10.0 mi South 5.8 mph - N/A   Clear
1:53 AM 77.0 °F - 71.1 °F 82% 29.98 in 10.0 mi SSW 3.5 mph - N/A   Clear
2:53 AM 75.9 °F - 71.1 °F 85% 29.97 in 9.0 mi South 3.5 mph - N/A   Clear
3:53 AM 75.9 °F - 72.0 °F 87% 29.96 in 8.0 mi SSW 3.5 mph - N/A   Clear
4:53 AM 75.9 °F - 72.0 °F 87% 29.95 in 8.0 mi SW 3.5 mph - N/A   Clear
5:53 AM 75.0 °F - 72.0 °F 90% 29.96 in 8.0 mi WSW 3.5 mph - N/A   Clear
6:53 AM 75.9 °F - 72.0 °F 87% 29.97 in 7.0 mi SSW 3.5 mph - N/A   Clear
7:53 AM 77.0 °F - 72.0 °F 84% 29.98 in 7.0 mi SW 6.9 mph - N/A   Clear
8:53 AM 81.0 °F 85.2 °F 72.0 °F 74% 29.98 in 8.0 mi WSW 8.1 mph - N/A   Clear
9:53 AM 84.9 °F 90.7 °F 72.0 °F 65% 29.99 in 10.0 mi WSW 6.9 mph - N/A   Clear
10:53 AM 88.0 °F 94.7 °F 72.0 °F 59% 29.98 in 10.0 mi WSW 8.1 mph - N/A   Clear
11:53 AM 91.0 °F 99.3 °F 73.0 °F 55% 29.97 in 10.0 mi West 3.5 mph - N/A   Clear
12:53 PM 93.9 °F 103.4 °F 73.0 °F 51% 29.96 in 10.0 mi West 4.6 mph - N/A   Clear
1:53 PM 93.9 °F 102.1 °F 72.0 °F 49% 29.94 in 10.0 mi South 6.9 mph - N/A   Clear
2:53 PM 93.9 °F 99.1 °F 69.1 °F 44% 29.92 in 10.0 mi SSW 5.8 mph - N/A   Clear
3:53 PM 91.9 °F 100.7 °F 73.0 °F 54% 29.90 in 10.0 mi ENE 4.6 mph - N/A   Clear
4:53 PM 87.1 °F 91.3 °F 69.1 °F 55% 29.91 in 10.0 mi NNW 12.7 mph 18.4 mph N/A   Mostly Cloudy
5:53 PM 88.0 °F 92.9 °F 70.0 °F 55% 29.88 in 10.0 mi Calm Calm - N/A   Clear
6:53 PM 87.1 °F 94.5 °F 73.0 °F 63% 29.89 in 10.0 mi SW 3.5 mph - N/A   Clear
7:53 PM 88.0 °F 97.5 °F 75.0 °F 65% 29.91 in 10.0 mi West 6.9 mph - N/A   Clear
8:53 PM 82.9 °F 88.0 °F 72.0 °F 69% 29.90 in 10.0 mi SW 3.5 mph - N/A   Clear
9:53 PM 81.0 °F 84.9 °F 71.1 °F 72% 29.94 in 10.0 mi West 5.8 mph - N/A   Partly Cloudy
10:53 PM 80.1 °F 82.9 °F 69.1 °F 69% 29.98 in 10.0 mi NW 5.8 mph - N/A   Partly Cloudy
11:53 PM 78.1 °F - 69.1 °F 74% 29.96 in 10.0 mi South 5.8 mph - N/A   Clear